DW9298 Weather Reports


Display with metric or nautical units.
time (UTC)temp
F
wind
direction
speed
MPH
gust
MPH
rain 1hr
in
rain 24hr
in
rain mn
in
humidity
%
barometer
mb
20260505010040 59 77 3.0 11.0 0.00 0.00 0.00 46 1009.3
20260505004552 59 336 5.0 16.0 0.00 0.00 0.00 45 1009.1
20260505003041 60 22 7.0 19.0 0.00 0.00 0.00 45 1009.0
20260505001543 62 332 8.0 16.0 0.00 0.00 0.00 36 1009.0
20260505000057 63 310 8.0 15.0 0.00 0.00 0.00 36 1009.0
20260504234540 63 0 2.0 9.0 0.00 0.00 0.00 34 1009.1
20260504233040 64 63 10.0 17.0 0.00 0.00 0.00 35 1009.0
20260504231546 64 39 12.0 20.0 0.00 0.00 0.00 34 1008.5
20260504230100 64 43 14.0 23.0 0.00 0.00 0.00 34 1007.9
20260504224542 64 50 15.0 23.0 0.00 0.00 0.00 33 1007.4
20260504223042 66 31 15.0 21.0 0.00 0.00 0.00 31 1007.9
20260504221557 65 348 8.0 14.0 0.00 0.00 0.00 31 1008.1
20260504220046 64 360 9.0 22.0 0.00 0.00 0.00 32 1008.6
20260504214536 65 313 11.0 25.0 0.00 0.00 0.00 31 1008.8
20260504213044 66 355 12.0 24.0 0.00 0.00 0.00 30 1008.3
20260504211545 67 344 15.0 23.0 0.00 0.00 0.00 26 1008.1
20260504210051 69 355 16.0 24.0 0.00 0.00 0.00 24 1007.6
20260504204541 69 13 19.0 32.0 0.00 0.00 0.00 24 1007.4
20260504203047 70 355 23.0 32.0 0.00 0.00 0.00 24 1007.2
20260504201543 74 307 13.0 33.0 0.00 0.00 0.00 20 1006.9
20260504200042 74 346 13.0 20.0 0.00 0.00 0.00 17 1007.1
20260504194540 73 269 10.0 17.0 0.00 0.00 0.00 18 1007.1
20260504193045 72 306 10.0 23.0 0.00 0.00 0.00 16 1007.1
20260504191543 73 315 11.0 23.0 0.00 0.00 0.00 16 1007.0
20260504190044 73 315 10.0 22.0 0.00 0.00 0.00 16 1007.0
20260504184540 73 318 14.0 22.0 0.00 0.00 0.00 16 1007.2
20260504183045 73 312 11.0 23.0 0.00 0.00 0.00 18 1007.3
20260504181548 72 290 13.0 24.0 0.00 0.00 0.00 20 1007.6
20260504180044 72 280 13.0 28.0 0.00 0.00 0.00 19 1007.7
20260504174542 72 261 17.0 25.0 0.00 0.00 0.00 21 1007.9
20260504173045 72 281 16.0 25.0 0.00 0.00 0.00 22 1008.1
20260504171545 71 276 16.0 26.0 0.00 0.00 0.00 22 1008.2
20260504081544 43 283 2.0 4.0 0.00 0.00 0.00 53 1010.1
20260504050106 57 311 6.0 10.0 0.00 0.00 0.00 32 1010.8
20260504044546 55 270 7.0 12.0 0.00 0.00 0.00 34 1010.7
20260504043049 53 242 5.0 8.0 0.00 0.00 0.00 33 1010.3
20260504041542 55 261 6.0 7.0 0.00 0.00 0.00 31 1010.4
20260504040049 57 262 5.0 7.0 0.00 0.00 0.00 30 1010.6
20260504034546 58 265 5.0 7.0 0.00 0.00 0.00 29 1010.7
20260504033047 58 257 3.0 6.0 0.00 0.00 0.00 29 1010.7
20260504031547 59 255 3.0 4.0 0.00 0.00 0.00 28 1010.7
20260504030040 60 238 3.0 5.0 0.00 0.00 0.00 27 1010.7
20260504024601 61 223 3.0 6.0 0.00 0.00 0.00 27 1010.7
20260504023045 62 222 4.0 7.0 0.00 0.00 0.00 27 1010.7
20260504021548 63 227 6.0 9.0 0.00 0.00 0.00 26 1010.7
20260504020043 64 231 7.0 10.0 0.00 0.00 0.00 25 1010.6
20260504014545 65 232 9.0 12.0 0.00 0.00 0.00 23 1010.6
20260504013046 66 265 9.0 13.0 0.00 0.00 0.00 22 1010.4
20260504011548 67 241 10.0 17.0 0.00 0.00 0.00 22 1010.7